Location: Unspecified
(0.0000°N, 0.0000°E)
Time: 00:04:01
(UTC+02:00)

Iridium 47 - Visible Passes

Search period start: 26 October 2014 00:00
Search period end: 04 November 2014 23:00
Orbit: 776 x 779 km, 86.4° (Epoch: 25 October)

Date Brightness Start Highest point End Pass type
(mag) Time Alt. Az. Time Alt. Az. Time Alt. Az.
27 Oct 7.2 05:48:14 10° NNE 05:52:42 30° E 05:57:11 10° SSE visible
28 Oct 8.1 05:16:52 10° ENE 05:19:15 13° E 05:21:38 10° ESE visible
28 Oct 8.4 19:31:33 10° WSW 19:33:12 11° W 19:34:51 10° WNW visible
30 Oct 6.1 05:47:45 10° NNE 05:52:44 48° E 05:57:44 10° SSE visible
31 Oct 7.6 05:15:22 10° NE 05:19:17 22° E 05:23:12 10° SE visible
02 Nov 5.2 05:47:35 10° N 05:52:46 79° E 05:57:59 10° S visible
03 Nov 6.7 05:14:37 10° NNE 05:19:18 35° E 05:24:00 10° SSE visible
04 Nov 7.9 04:42:47 10° NE 04:45:51 16° E 04:48:54 10° SE visible
